找回密码
 注册

扫一扫,访问微社区

EDA365大咖直播--《用数据说话--HFSS仿真实操案例讲解》

推荐主题

[Hspice仿真] 咨询一下Hspice软件哪个版本好用点,想入门仿真 3人参与 cpupygu 2020-2-4 12:08 3 94 willyeing 2020-2-6 21:54
[仿真讨论] 請問PCB上高速信號走線以及連接器, 線材介接模擬 3人参与 gprs 2020-2-3 14:10 3 79 kkk228 2020-2-18 19:28
[仿真讨论] 串联端接电阻对信号上升时间的影响 2人参与 NJNU 2020-2-3 10:48 2 95 willyeing 2020-2-6 22:09
[Cadence Sigrity] 求助 allegro 如何快速显示top层元件 pad和丝印 5人参与 attach_img 名字最少3字符 2020-2-2 22:50 5 154 bitfz 2020-2-10 15:41
[仿真讨论] 求标准DP连接器的S参数,或者连接器的材料参数 1人参与 yixiaolu88 2020-2-2 21:23 1 80 dzkcool 2020-2-3 14:15
[仿真讨论] 半桥或全桥电路模块寄生参数提取 1人参与 新人帖 CCEDA 2020-1-31 20:44 1 97 willyeing 2020-2-6 22:12
[ADS仿真] ADS2020 SIPro出错还是ADS2020版本有问题啊 5人参与 attach_img hyxs714154 2020-1-26 10:57 6 310 kkk228 2020-2-18 19:32
[仿真讨论] PCB走线的参考平面在哪? 13人参与 attach_img ytm 2020-1-21 15:01 13 496 199574cj 2020-2-17 14:58
[仿真讨论] 关于信号反射的讨论 2人参与 attach_img Griffin 2020-1-20 14:18 2 197 CCEDA 2020-1-31 20:37
[ADS仿真] ADS仿真,有眼图,眼宽为0? 2人参与 attach_img hyxs714154 2020-1-19 20:38 2 182 hyxs714154 2020-1-31 10:20
[仿真讨论] 信号完整性设计时间管理 1人参与 zjsxuw 2020-1-19 10:26 1 108 fawa 2020-1-19 18:40
[仿真讨论] IBIS的Package model介绍 2人参与 attachment eileendong 2020-1-17 14:01 2 187 ls4320001 2020-2-6 10:05
[仿真讨论] 电路板调试其实可以很简单 3人参与 zjsxuw 2020-1-17 09:51 3 188 悬崖孤鸠 2020-1-28 16:29
[仿真讨论] 冲激响应和脉冲响应产生长拖尾的物理原因是什么? 5人参与 新人帖 attach_img gordond 2020-1-16 20:13 12 168 niuwa 2020-1-19 11:36
[Cadence Sigrity] power dc 做 散热片怎么把散热片放在散热器件的另一面 1人参与 attach_img lihao 2020-1-16 17:01 1 126 lihao 2020-1-16 17:02
[仿真讨论] 信号完整性设计工作的必要性 5人参与 ytm 2020-1-16 10:13 5 170 沈不清 2020-2-11 17:30
[ADS仿真] 模拟实际的传输线S参数,铜皮粗糙度设置几个变量,几个问题请教? 2人参与 attach_img hyxs714154 2020-1-15 17:18 2 158 hyxs714154 2020-1-16 14:03
[HyperLynx] hyperlynx boardsim和linesim采用分布式模型仿真电源去耦分析,结果不一致!!! 2人参与 新人帖 attach_img JORDON 2020-1-15 10:48 2 135 mxwabc 2020-1-28 13:08
[仿真讨论] 浅谈SI设计与SI仿真 2人参与 dark 2020-1-15 10:33 2 170 changjinling 2020-1-18 11:33
[仿真讨论] PCB走线宽度变化产生的反射 3人参与 attach_img poseidon 2020-1-14 16:48 3 213 kkk228 2020-2-18 19:55
[资料下载] PCB电流与信号完整性设计书籍 8人参与 attachment tiantianshang 2020-1-14 10:35 8 214 clp783 2020-1-19 11:53
[Cadence Sigrity] 使用Sigrity的IR Drop做PDN直流仿真的学习资料 11人参与 attachment 小猪佩奇AAA 2020-1-13 20:13 11 209 gclfly 2020-2-13 15:52
[Cadence Sigrity] 使用sigrity做PI&SI仿真的资料 14人参与 新人帖 attachment recommend 小猪佩奇AAA 2020-1-13 20:03 13 295 tangtang2017 2020-2-18 21:43
[仿真讨论] 小公司是否需要专人来做信号信号完整性? 4人参与 wisuhuu 2020-1-13 10:02 4 214 kkk228 2020-2-18 19:35
[仿真讨论] PCB走线中途容性负载反射 1人参与 attach_img dark 2020-1-13 09:46 1 113 沈不清 2020-1-13 10:19
下一页 »
还可输入 80 个字符
您需要登录后才可以发帖 登录 | 注册

本版积分规则

EDA365公众号

关于我们|手机版|EDA365电子论坛网 ( 粤ICP备18020198号 )

GMT+8, 2020-2-19 20:30 , Processed in 0.093750 second(s), 13 queries , Gzip On.

深圳市墨知创新科技有限公司

地址:深圳市南山区科技生态园2栋A座805 电话:19925233282

返回顶部 返回版块